Briseno, Mexico

4:38 AM CST on January 24, 2017 (GMT -0600)
Gen Leobardo C Ruiz International

Weather History for MMZC - December, 2012

Change the Weather History Date:

Wednesday, December 12, 2012

  Actual Average Record
Temperature  
Mean Temperature 47 °F -  
Max Temperature 66 °F 67 °F 127 °F (1997)
Min Temperature 28 °F 32 °F 19 °F (1997)
Degree Days  
Heating Degree Days 18    
Moisture  
Dew Point 27 °F    
Average Humidity 47    
Maximum Humidity 74    
Minimum Humidity 23    
Precipitation  
Precipitation 0.00 in - - ()
Sea Level Pressure  
Sea Level Pressure 30.27 in    
Wind  
Wind Speed 5 mph ()    
Max Wind Speed 17 mph    
Max Gust Speed -    
Visibility 9.7 miles    
Events      
Averages and records for this station are not official NWS values.
T = Trace of Precipitation, MM = Missing Value Source: Averaged Metar Reports

Daily Weather History Graph

Daily Weather History Graph

Search for Another Location

Airport or City:

Trip Planner

Search our weather history database for the weather conditions in past years. The results will help you decide how hot, cold, wet, or windy it might be!

Date:

Astronomy

Dec. 12, 2012 Rise Set
Actual Time 7:22 AM CST 6:07 PM CST
Civil Twilight 6:57 AM CST 6:31 PM CST
Nautical Twilight 6:29 AM CST 6:59 PM CST
Astronomical Twilight 6:02 AM CST 7:27 PM CST
Moon 6:31 AM CST (12/12) 5:44 PM CST (12/12)
Length of Visible Light 11h 34m
Length of Day
10h 44m
Waning Crescent, 1% of the Moon is Illuminated
Dec 12
Waning Crescent
Dec 13
New
Dec 19
First Quarter
Dec 28
Full
Jan 4
Last Quarter

Hourly Weather History & Observations

Time (CST) Temp. Windchill Dew Point Humidity Pressure Visibility Wind Dir Wind Speed Gust Speed Precip Events Conditions
12:42 AM 37.4 °F - 24.8 °F 60% 30.26 in 10.0 mi Calm Calm - N/A   Scattered Clouds
1:40 AM 35.6 °F - 24.8 °F 65% 30.26 in 10.0 mi Calm Calm - N/A   Scattered Clouds
3:41 AM 30.2 °F - 19.4 °F 64% 30.24 in 10.0 mi Calm Calm - N/A   Scattered Clouds
4:41 AM 32.0 °F 26.4 °F 23.0 °F 69% 30.24 in 10.0 mi SSW 5.8 mph - N/A   Scattered Clouds
5:41 AM 32.0 °F 27.5 °F 23.0 °F 69% 30.25 in 10.0 mi South 4.6 mph - N/A   Scattered Clouds
6:43 AM 28.4 °F 23.3 °F 21.2 °F 74% 30.26 in 10.0 mi SSW 4.6 mph - N/A   Scattered Clouds
7:47 AM 30.2 °F - 19.4 °F 64% 30.29 in 5.0 mi Calm Calm - N/A   Scattered Clouds
8:46 AM 39.2 °F - 28.4 °F 65% 30.31 in 8.0 mi Calm Calm - N/A   Partly Cloudy
9:40 AM 50.0 °F - 32.0 °F 50% 30.32 in 10.0 mi Calm Calm - N/A   Partly Cloudy
11:04 AM 59.0 °F - 33.8 °F 39% 30.32 in 10.0 mi South 12.7 mph - N/A   Partly Cloudy
12:14 PM 62.6 °F - 32.0 °F 32% 30.29 in 10.0 mi SSW 15.0 mph - N/A   Scattered Clouds
12:44 PM 64.4 °F - 30.2 °F 28% 30.28 in 10.0 mi WSW 11.5 mph - N/A   Scattered Clouds
1:40 PM 66.2 °F - 28.4 °F 24% 30.25 in 10.0 mi SSW 12.7 mph - N/A   Partly Cloudy
2:46 PM 66.2 °F - 26.6 °F 23% 30.23 in 10.0 mi SSW 17.3 mph - N/A   Scattered Clouds
3:47 PM 64.4 °F - 26.6 °F 24% 30.22 in 10.0 mi SSW 17.3 mph - N/A   Mostly Cloudy
4:47 PM 64.4 °F - 28.4 °F 26% 30.22 in 10.0 mi SSW 13.8 mph - N/A   Scattered Clouds
5:42 PM 62.6 °F - 30.2 °F 30% 30.23 in 10.0 mi SSW 11.5 mph - N/A   Mostly Cloudy
6:46 PM 59.0 °F - 30.2 °F 34% 30.23 in 10.0 mi South 5.8 mph - N/A   Mostly Cloudy
7:43 PM 53.6 °F - 28.4 °F 38% 30.26 in 10.0 mi South 6.9 mph - N/A   Scattered Clouds
8:43 PM 48.2 °F - 28.4 °F 46% 30.28 in 10.0 mi SE 8.1 mph - N/A   Scattered Clouds
9:43 PM 48.2 °F - 28.4 °F 46% 30.30 in 10.0 mi Calm Calm - N/A   Mostly Cloudy
10:54 PM 44.6 °F 40.7 °F 28.4 °F 53% 30.31 in 10.0 mi South 6.9 mph - N/A   Partly Cloudy